Погода в Чолпон-Ате

Киргизия     42°38′59″N   77°05′08″E
темп.,
°C
ветер,
м/с
пор.,
м/с
влажн.,
%
обл.,
%
осадки,
мм/ч
давл.,
гПа
погр.,
м
23 сентября, чт
чт2300:00+4ссз117090 0.9 101722
03:00+4ссз116652 0.1 101614
06:00+2с216524 0.1 101814
09:00+5ююв215716 0.0 1018458
12:00+8ю344712 0.0 10161208
15:00+10ююз353957 0.0 10141623
18:00+8зсз124426 0.0 1014619
21:00+5юз0154100 0.0 101611
24 сентября, пт
пт2400:00+4с11674 0.0 101714
03:00+3ссз225497 0.0 101616
06:00+3ссз335277 0.0 101842
09:00+6зсз13420 0.0 1018520
12:00+8юз38383 0.0 10171844
15:00+10з28260 0.0 10161979
18:00+7ссз35350 0.0 1019348
21:00+4с44300 0.0 102243
25 сентября, сб
сб2500:00+3ссз33230 0.0 102328
03:00+2ссз33210 0.0 102322
06:00+1сз11180 0.0 102312
09:00+7юз12170 0.0 1021211
12:00+10ююз33200 0.0 1019863
15:00+12юз24230 0.0 10161290
18:00+9сз22310 0.0 101739
21:00+6с43229 0.0 102031
26 сентября, вс
вс2600:00+5ссз32230 0.0 101916
03:00+5ссз32260 0.0 101916
06:00+4ссз32310 0.0 101917
09:00+9зсз222922 0.0 1019345
12:00+12зюз252822 0.0 10161770
15:00+13зюз252932 0.0 10151988
18:00+11ссз223639 0.0 101655
21:00+8с33313 0.0 101825
27 сентября, пн
пн2700:00+7с33360 0.0 101716
03:00+5св00424 0.0 101510
06:00+5зюз01420 0.0 101411
09:00+10зюз11321 0.0 1014214
12:00+12ююз47270 0.0 10131178
15:00+14ююз511231 0.0 10112096
18:00+10сз224659 0.0 101395
21:00+6вюв11572 0.0 101714